#timestamp,LO_Frequency,Hit,StdDev 
1622768415.7,286046999.0,N
1622768435.5,286046996.9,N
1622768455.4,286046999.1,N
1622768475.2,286046996.6,N
1622768495.1,286046999.1,N
1622768496.0,286046999.1,N
1622768515.8,286046998.2,N
1622768535.7,286047000.9,N
1622768555.5,286047000.4,N
1622768575.3,286047000.7,N
1622768595.2,286047000.1,N
1622768615.0,286047004.0,N
1622768615.9,286047004.0,N
1622768635.7,286047000.9,N
1622768655.6,286046999.1,N
1622768675.4,286046997.6,N
1622768695.3,286046997.1,N
1622768715.1,286046999.6,N
1622768735.8,286047001.0,N
1622768755.7,286046998.3,N
1622768775.5,286046996.8,N
1622768795.4,286046993.4,Y
1622768815.2,286046998.0,P
1622768835.0,286046996.6,P
1622768835.9,286046996.6,N
1622768855.8,286046998.1,N
1622768875.6,286047003.3,N
1622768895.4,286047005.8,N
1622768915.3,286047001.3,N
1622768935.1,286047001.0,N
1622768955.9,286046998.8,N
1622768975.7,286046999.6,N
1622768995.5,286046996.9,N
1622769015.4,286046995.4,N
1622769035.2,286046996.1,N
1622769055.0,286046993.9,N
1622769055.9,286046993.9,N
1622769075.8,286046994.2,N
1622769095.6,286046994.0,N
1622769115.4,286046993.8,N
1622769135.3,286046993.6,N
1622769155.1,286046992.2,N
1622769175.9,286046991.8,N
1622769195.7,286046994.8,N
1622769215.5,286046995.2,N
1622769235.4,286046997.8,N
1622769255.2,286046993.3,N
1622769275.1,286046997.9,N
1622769276.0,286046997.9,N
1622769295.8,286046997.2,N
1622769315.6,286046996.8,N
1622769335.5,286046996.6,N
1622769355.3,286046997.9,N
1622769375.2,286046997.9,N
1622769395.9,286046997.8,N
1622769415.7,286046997.7,N
1622769435.6,286046998.0,N
1622769455.4,286046998.0,N
1622769475.3,286046997.9,N
1622769495.1,286046995.1,N
1622769496.0,286046995.1,N
1622769515.8,286046995.5,N
1622769535.7,286046998.0,N
1622769555.5,286046997.2,N
1622769575.3,286046994.9,N
1622769595.2,286046995.1,N
1622769615.0,286046996.3,N
1622769615.9,286046996.3,N
1622769635.8,286046995.1,N
1622769655.6,286046993.7,Y
1622769675.4,286046998.3,P
1622769695.3,286046999.4,N
1622769715.1,286046997.0,N
1622769735.9,286046997.8,N
1622769755.7,286046994.9,Y
1622769775.5,286046998.9,P
1622769795.4,286046998.9,N
1622769815.2,286046999.3,N
1622769835.1,286046998.5,N
1622769836.0,286046998.5,N
1622769855.8,286047000.8,N
1622769875.6,286047000.8,N
1622769895.5,286046998.8,N
1622769915.3,286046998.3,N
1622769935.1,286047001.1,N
1622769955.9,286047000.5,N
1622769975.7,286047000.6,N
1622769995.6,286046998.4,N
1622770015.4,286047000.8,N
1622770035.2,286047001.2,N
1622770055.1,286047001.2,N
1622770056.0,286047001.2,N
1622770075.8,286046998.3,N
1622770095.6,286046999.0,N
1622770115.5,286047001.2,N
1622770135.3,286046998.6,N
1622770155.2,286046998.5,N
1622770175.9,286046998.7,N
1622770195.7,286046998.3,N
1622770215.6,286047001.2,N
1622770235.4,286047000.4,N
1622770255.2,286047000.6,N
1622770275.1,286046998.3,N
1622770276.0,286046998.3,N
1622770295.8,286046996.9,N
1622770315.7,286046999.6,N
1622770335.5,286046996.7,N
1622770355.3,286046998.0,N
1622770375.2,286046995.1,Y
1622770395.0,286046995.6,P
1622770395.9,286046995.6,N
1622770415.7,286046995.8,N
1622770435.6,286046995.7,N
1622770455.4,286046993.4,Y
1622770475.3,286046998.5,P
1622770495.1,286046996.5,P
1622770496.0,286046996.5,P
1622770515.8,286046997.2,Y
1622770535.7,286047000.8,P
1622770555.5,286047001.1,N
1622770575.4,286046998.1,N
1622770595.2,286046996.6,N
1622770615.0,286046996.9,N
1622770615.9,286046996.9,N
1622770635.8,286047000.3,N
1622770655.6,286047003.9,N
1622770675.4,286047005.6,N
1622770695.3,286047007.4,N
1622770715.1,286047006.3,N
1622770735.9,286047004.7,N
1622770755.7,286047005.2,N
1622770775.5,286047007.5,N
1622770795.4,286047009.2,N
1622770815.2,286047007.6,N
1622770835.1,286047006.3,N
1622770836.0,286047006.3,N
1622770855.8,286047006.7,N
1622770875.6,286047005.7,N
1622770895.5,286047002.9,N
1622770915.3,286047004.9,N
1622770935.2,286047006.4,N
1622770955.9,286047009.0,N
1622770975.7,286047008.2,N
1622770995.6,286047010.0,N
1622771015.4,286047007.7,N
1622771035.2,286047006.3,N
1622771055.1,286047007.5,N
1622771056.0,286047007.5,N
1622771075.8,286047005.1,N
1622771095.7,286047006.3,N
1622771115.5,286047008.3,N
1622771135.3,286047006.2,N
1622771155.2,286047004.9,N
1622771175.0,286047005.1,N
1622771175.9,286047005.1,N
1622771195.8,286047007.0,Y
1622771215.6,286047002.6,P
1622771235.4,286047003.0,N
1622771255.3,286047004.3,N
1622771275.1,286047001.7,N
1622771295.8,286047001.8,N
1622771315.7,286047005.9,Y
1622771335.5,286047000.2,P
1622771355.4,286047001.2,N
1622771375.2,286046999.7,N
1622771395.0,286047002.3,N
1622771395.9,286047002.3,N
1622771415.8,286047002.3,N
1622771435.6,286047001.0,N
1622771455.5,286046996.7,N
1622771475.3,286046996.8,N
1622771495.1,286046996.7,N
1622771515.9,286046996.8,N
1622771535.7,286046998.7,N
1622771555.5,286047000.5,N
1622771575.4,286047000.3,N
1622771595.2,286046999.2,N
1622771615.1,286046999.4,N
1622771616.0,286046999.4,N
1622771635.8,286046999.0,N
1622771655.6,286047000.7,N
1622771675.5,286046996.9,N
1622771695.3,286046999.1,N
1622771715.2,286046998.5,N
1622771735.9,286047001.1,N
1622771755.7,286046997.3,N
1622771775.6,286046999.9,N
1622771795.4,286047001.6,N
1622771815.2,286046999.8,N
1622771835.1,286047000.7,N
1622771836.0,286047000.7,N
1622771855.8,286047002.0,N
1622771875.7,286047000.7,N
1622771895.5,286046996.6,N
1622771915.3,286047001.0,N
1622771935.2,286047004.0,N
1622771955.0,286047003.7,N
1622771955.9,286047003.7,N
1622771975.7,286047003.4,N
1622771995.6,286047003.4,N
